Location: *
(43.0409°N, 0.1694°E)
Time: 13:00:51
(UTC+00:00)

Cosmos 1484 Rocket - Pass Details

Date: 03 October 2023
Orbit: 489 x 533 km, 97.5° (Epoch: 01 December)

Event Time Altitude Azimuth Distance (km) Brightness Sun altitude
Rises 03:46:09 0° 21° (NNE) 2,575 6.8 -24.6°
Reaches altitude 10° 03:48:21 10° 30° (NNE) 1,689 5.9 -24.3°
Maximum altitude 03:51:42 35° 98° (E) 814 4.1 -23.7°
Enters shadow 03:54:01 17° 156° (SSE) 1,304 4.8 -23.3°
